^^
Saratoga-Weather Station Historical Data
Daily Summary for February 26, 2020 Units:  Metric    English   Both
Daily Weekly Monthly Yearly Custom
  High: Low: Average:
Temperature: 25.2 °C 16.6 °C 20.4 °C
Dew Point: 17.8 °C 11.9 °C 14.5 °C
Humidity: 92% 44% 70%
Wind Speed: 19.5km/h 0km/h 4.5km/h
Wind Gust: 29km/h - -
Wind- - West
Pressure: 1015.6 hPa 1007.5 hPa -
Precipitation: 2.3 mm    
Historical Graphs
 
 
Tabular Data for February 26, 2020
Time Temperature Dew Point Pressure Wind Wind Speed Wind Gust Humidity Rainfall Rate (Hourly) solar
00:03 21.3 °C 14.9 °C 1008.5 hPa West 6.4 km/h 9.7 km/h 67% 0.0 mm 0 W/m2
00:08 21.3 °C 14.9 °C 1008.8 hPa NW 4.7 km/h 12.9 km/h 67% 0.0 mm 0 W/m2
00:13 21.2 °C 14.8 °C 1008.5 hPa WSW 7.9 km/h 14.5 km/h 67% 0.0 mm 0 W/m2
00:18 21.2 °C 15.1 °C 1008.5 hPa WNW 11.1 km/h 11.3 km/h 68% 0.0 mm 0 W/m2
00:23 21.1 °C 14.7 °C 1008.5 hPa West 4.7 km/h 19.3 km/h 67% 0.0 mm 0 W/m2
00:28 21.1 °C 15 °C 1008.5 hPa WSW 6.4 km/h 6.4 km/h 68% 0.0 mm 0 W/m2
00:33 21.1 °C 15 °C 1008.5 hPa NW 13 km/h 12.9 km/h 68% 0.0 mm 0 W/m2
00:38 21 °C 14.9 °C 1008.8 hPa WNW 4.7 km/h 11.3 km/h 68% 0.0 mm 0 W/m2
00:43 20.9 °C 15 °C 1008.8 hPa WNW 7.9 km/h 17.7 km/h 69% 0.0 mm 0 W/m2
00:48 20.7 °C 15 °C 1008.8 hPa West 9.7 km/h 9.7 km/h 70% 0.0 mm 0 W/m2
00:53 20.6 °C 14.9 °C 1008.8 hPa West 6.4 km/h 11.3 km/h 70% 0.0 mm 0 W/m2
00:58 20.4 °C 15 °C 1008.8 hPa West 3.2 km/h 12.9 km/h 71% 0.0 mm 0 W/m2
01:03 20.2 °C 15.2 °C 1008.8 hPa West 3.2 km/h 8 km/h 73% 0.0 mm 0 W/m2
01:08 19.8 °C 15.2 °C 1008.8 hPa NW 3.2 km/h 12.9 km/h 75% 0.0 mm 0 W/m2
01:13 19.6 °C 15.3 °C 1008.8 hPa WNW 3.2 km/h 4.8 km/h 76% 0.0 mm 0 W/m2
01:18 19.4 °C 15.3 °C 1008.8 hPa NW 1.4 km/h 4.8 km/h 77% 0.0 mm 0 W/m2
01:23 19.3 °C 15.4 °C 1008.8 hPa Calm     78% 0.0 mm 0 W/m2
01:28 19.2 °C 15.5 °C 1008.5 hPa Calm   1.6 km/h 79% 0.0 mm 0 W/m2
01:34 19.1 °C 15.4 °C 1008.5 hPa SSE 1.4 km/h 1.6 km/h 79% 0.0 mm 0 W/m2
01:39 19.1 °C 15.4 °C 1008.5 hPa NNW 1.4 km/h 3.2 km/h 79% 0.0 mm 0 W/m2
01:44 19.1 °C 15.8 °C 1008.5 hPa Calm     81% 0.0 mm 0 W/m2
01:49 18.9 °C 15.6 °C 1008.5 hPa Calm   3.2 km/h 81% 0.0 mm 0 W/m2
01:54 18.8 °C 15.9 °C 1008.5 hPa WNW 3.2 km/h 3.2 km/h 83% 0.2 mm 0 W/m2
01:59 18.7 °C 15.6 °C 1008.8 hPa West 1.4 km/h 6.4 km/h 82% 0.2 mm 0 W/m2
02:04 18.6 °C 15.5 °C 1008.5 hPa WSW 3.2 km/h 6.4 km/h 82% 0.2 mm 0 W/m2
02:09 18.7 °C 15.6 °C 1008.8 hPa Calm   1.6 km/h 82% 0.2 mm 0 W/m2
02:14 18.7 °C 15.6 °C 1008.8 hPa NNW 9.7 km/h 9.7 km/h 82% 0.2 mm 0 W/m2
02:19 18.7 °C 15.6 °C 1008.8 hPa WNW 6.4 km/h 9.7 km/h 82% 0.2 mm 0 W/m2
02:24 18.7 °C 15.4 °C 1008.5 hPa NW 6.4 km/h 11.3 km/h 81% 0.2 mm 0 W/m2
02:29 18.8 °C 15.5 °C 1008.5 hPa WNW 3.2 km/h 12.9 km/h 81% 0.2 mm 0 W/m2
02:34 18.8 °C 15.3 °C 1008.5 hPa WNW 3.2 km/h 6.4 km/h 80% 0.2 mm 0 W/m2
02:39 18.8 °C 15.3 °C 1008.5 hPa NNW 1.4 km/h 3.2 km/h 80% 0.2 mm 0 W/m2
02:44 18.8 °C 15.3 °C 1008.5 hPa Calm   3.2 km/h 80% 0.2 mm 0 W/m2
02:49 18.8 °C 15.3 °C 1008.5 hPa Calm   4.8 km/h 80% 0.0 mm 0 W/m2
02:54 18.8 °C 15.3 °C 1008.5 hPa NE 3.2 km/h 3.2 km/h 80% 0.0 mm 0 W/m2
02:59 18.8 °C 15.3 °C 1008.5 hPa North 1.4 km/h 6.4 km/h 80% 0.0 mm 0 W/m2
03:04 18.7 °C 15.4 °C 1008.5 hPa North 1.4 km/h 3.2 km/h 81% 0.0 mm 0 W/m2
03:10 18.7 °C 15.4 °C 1008.1 hPa NE 1.4 km/h 6.4 km/h 81% 0.0 mm 0 W/m2
03:15 18.7 °C 15.4 °C 1007.8 hPa Calm     81% 0.0 mm 0 W/m2
03:20 18.6 °C 15.5 °C 1007.5 hPa Calm     82% 0.0 mm 0 W/m2
03:25 18.4 °C 15.5 °C 1007.8 hPa Calm     83% 0.0 mm 0 W/m2
03:30 18.3 °C 15.5 °C 1007.8 hPa Calm   1.6 km/h 84% 0.0 mm 0 W/m2
03:35 18.2 °C 15.6 °C 1007.8 hPa Calm   1.6 km/h 85% 0.0 mm 0 W/m2
03:40 18.1 °C 15.5 °C 1008.1 hPa NNW 1.4 km/h 3.2 km/h 85% 0.0 mm 0 W/m2
03:45 18.1 °C 15.4 °C 1008.1 hPa WNW 3.2 km/h 8 km/h 84% 0.0 mm 0 W/m2
03:50 18.2 °C 15.3 °C 1008.1 hPa Calm   3.2 km/h 83% 0.0 mm 0 W/m2
03:55 18.3 °C 15.4 °C 1008.5 hPa West 3.2 km/h 6.4 km/h 83% 0.0 mm 0 W/m2
04:00 18.4 °C 15.5 °C 1008.5 hPa WNW 3.2 km/h 4.8 km/h 83% 0.0 mm 0 W/m2
04:05 18.4 °C 15.3 °C 1008.5 hPa Calm   6.4 km/h 82% 0.0 mm 0 W/m2
04:10 18.4 °C 15.3 °C 1008.1 hPa NNW 1.4 km/h 3.2 km/h 82% 0.0 mm 0 W/m2
04:15 18.5 °C 15.4 °C 1008.5 hPa North 3.2 km/h 4.8 km/h 82% 0.0 mm 0 W/m2
04:20 18.5 °C 15.4 °C 1008.5 hPa NNE 3.2 km/h 4.8 km/h 82% 0.0 mm 0 W/m2
04:25 18.6 °C 15.3 °C 1008.5 hPa NW 1.4 km/h 6.4 km/h 81% 0.0 mm 0 W/m2
04:30 18.6 °C 15.3 °C 1008.5 hPa NE 1.4 km/h 3.2 km/h 81% 0.0 mm 0 W/m2
04:35 18.6 °C 15.3 °C 1008.5 hPa North 1.4 km/h 14.5 km/h 81% 0.0 mm 0 W/m2
04:41 18.6 °C 15.3 °C 1008.8 hPa West 4.7 km/h 6.4 km/h 81% 0.0 mm 0 W/m2
04:46 18.6 °C 15.3 °C 1008.8 hPa NNW 6.4 km/h 14.5 km/h 81% 0.0 mm 0 W/m2
04:51 18.6 °C 15.3 °C 1008.8 hPa NW 3.2 km/h 6.4 km/h 81% 0.0 mm 0 W/m2
04:56 18.6 °C 15.3 °C 1008.8 hPa NW 3.2 km/h 12.9 km/h 81% 0.0 mm 0 W/m2
05:01 18.6 °C 15.3 °C 1008.8 hPa West 1.4 km/h 8 km/h 81% 0.0 mm 0 W/m2
05:06 18.6 °C 15.3 °C 1008.8 hPa NW 1.4 km/h 6.4 km/h 81% 0.0 mm 0 W/m2
05:11 18.6 °C 15.3 °C 1008.8 hPa Calm   6.4 km/h 81% 0.0 mm 0 W/m2
05:16 18.6 °C 15.3 °C 1008.5 hPa ENE 3.2 km/h 3.2 km/h 81% 0.0 mm 0 W/m2
05:21 18.6 °C 15.5 °C 1008.5 hPa West 1.4 km/h 6.4 km/h 82% 0.0 mm 0 W/m2
05:26 18.6 °C 15.5 °C 1008.5 hPa Calm   3.2 km/h 82% 0.0 mm 0 W/m2
05:31 18.5 °C 15.4 °C 1008.5 hPa WSW 1.4 km/h 4.8 km/h 82% 0.0 mm 0 W/m2
05:36 18.5 °C 15.4 °C 1008.5 hPa WNW 1.4 km/h 3.2 km/h 82% 0.0 mm 0 W/m2
05:41 18.4 °C 15.3 °C 1008.5 hPa NE 1.4 km/h 3.2 km/h 82% 0.0 mm 0 W/m2
05:47 18.4 °C 15.3 °C 1008.5 hPa Calm   3.2 km/h 82% 0.0 mm 0 W/m2
05:52 18.4 °C 15.5 °C 1008.5 hPa WNW 1.4 km/h 3.2 km/h 83% 0.0 mm 0 W/m2
05:57 18.4 °C 15.5 °C 1008.5 hPa WNW 3.2 km/h 6.4 km/h 83% 0.0 mm 0 W/m2
06:02 18.4 °C 15.5 °C 1008.5 hPa WNW 3.2 km/h 8 km/h 83% 0.0 mm 0 W/m2
06:07 18.3 °C 15.4 °C 1008.5 hPa West 4.7 km/h 6.4 km/h 83% 0.0 mm 0 W/m2
06:12 18.3 °C 15.4 °C 1008.5 hPa Calm   4.8 km/h 83% 0.0 mm 0 W/m2
06:17 18.2 °C 15.5 °C 1008.5 hPa Calm   1.6 km/h 84% 0.0 mm 0 W/m2
06:22 18.1 °C 15.4 °C 1008.5 hPa WNW 1.4 km/h 11.3 km/h 84% 0.0 mm 5 W/m2
06:27 18.1 °C 15.4 °C 1008.8 hPa NW 4.7 km/h 4.8 km/h 84% 0.0 mm 7 W/m2
06:32 18.1 °C 15.4 °C 1008.8 hPa West 11.3 km/h 11.3 km/h 84% 0.0 mm 9 W/m2
06:37 18.1 °C 15.4 °C 1008.8 hPa NW 1.4 km/h 4.8 km/h 84% 0.0 mm 14 W/m2
06:42 18.1 °C 15.4 °C 1008.8 hPa West 11.3 km/h 11.3 km/h 84% 0.0 mm 26 W/m2
06:47 18.1 °C 15.4 °C 1008.8 hPa NW 3.2 km/h 11.3 km/h 84% 0.0 mm 23 W/m2
06:52 18.1 °C 15.4 °C 1008.8 hPa WNW 4.7 km/h 9.7 km/h 84% 0.0 mm 25 W/m2
06:57 18.2 °C 15.5 °C 1009.1 hPa West 9.7 km/h 14.5 km/h 84% 0.0 mm 25 W/m2
07:07 18.1 °C 15.4 °C 1009.1 hPa West 6.4 km/h 14.5 km/h 84% 0.0 mm 30 W/m2
07:12 18.1 °C 15.4 °C 1009.1 hPa NW 6.4 km/h 6.4 km/h 84% 0.0 mm 42 W/m2
07:17 18 °C 15.3 °C 1009.1 hPa NW 3.2 km/h 11.3 km/h 84% 0.0 mm 30 W/m2
07:22 17.9 °C 15.3 °C 1009.1 hPa WNW 3.2 km/h 3.2 km/h 85% 0.2 mm 21 W/m2
07:27 17.8 °C 15.4 °C 1009.1 hPa WNW 3.2 km/h 6.4 km/h 86% 0.2 mm 35 W/m2
07:32 17.8 °C 15.4 °C 1009.1 hPa Calm   4.8 km/h 86% 0.2 mm 39 W/m2
07:37 17.7 °C 15.5 °C 1009.5 hPa NW 3.2 km/h 9.7 km/h 87% 0.2 mm 33 W/m2
07:42 17.7 °C 15.5 °C 1009.5 hPa West 3.2 km/h 11.3 km/h 87% 0.2 mm 35 W/m2
07:47 17.7 °C 15.7 °C 1009.5 hPa WSW 6.4 km/h 11.3 km/h 88% 0.2 mm 72 W/m2
07:52 17.7 °C 15.7 °C 1009.8 hPa NW 3.2 km/h 11.3 km/h 88% 0.2 mm 46 W/m2
07:57 17.7 °C 15.9 °C 1009.8 hPa NW 3.2 km/h 3.2 km/h 89% 0.2 mm 118 W/m2
08:02 17.8 °C 16 °C 1009.8 hPa NW 3.2 km/h 11.3 km/h 89% 0.2 mm 69 W/m2
08:07 17.9 °C 15.9 °C 1009.8 hPa SW 3.2 km/h 3.2 km/h 88% 0.2 mm 46 W/m2
08:13 17.9 °C 16.1 °C 1009.8 hPa Calm   9.7 km/h 89% 0.2 mm 60 W/m2
08:18 17.9 °C 15.9 °C 1009.8 hPa WSW 3.2 km/h 4.8 km/h 88% 0.2 mm 42 W/m2
08:23 18 °C 16 °C 1009.8 hPa NNE 3.2 km/h 4.8 km/h 88% 0.0 mm 83 W/m2
08:28 18 °C 16 °C 1009.8 hPa NNW 3.2 km/h 4.8 km/h 88% 0.0 mm 97 W/m2
08:33 18 °C 16 °C 1010.2 hPa Calm   6.4 km/h 88% 0.0 mm 90 W/m2
08:38 17.9 °C 15.9 °C 1010.2 hPa WSW 4.7 km/h 8 km/h 88% 0.0 mm 69 W/m2
08:43 17.9 °C 16.1 °C 1010.2 hPa NE 1.4 km/h 6.4 km/h 89% 0.0 mm 62 W/m2
08:48 17.9 °C 16.1 °C 1010.2 hPa North 4.7 km/h 4.8 km/h 89% 0.0 mm 120 W/m2
08:53 18 °C 16.2 °C 1010.2 hPa South 1.4 km/h 3.2 km/h 89% 0.0 mm 98 W/m2
08:58 18.1 °C 16.3 °C 1010.2 hPa WNW 6.4 km/h 11.3 km/h 89% 0.0 mm 102 W/m2
09:03 18.1 °C 16.3 °C 1010.2 hPa NE 1.4 km/h 3.2 km/h 89% 0.0 mm 67 W/m2
09:08 18.2 °C 16.4 °C 1010.2 hPa NW 4.7 km/h 11.3 km/h 89% 0.0 mm 174 W/m2
09:13 18.2 °C 16.4 °C 1010.5 hPa West 4.7 km/h 4.8 km/h 89% 0.0 mm 139 W/m2
09:18 18.3 °C 16.5 °C 1010.5 hPa WSW 3.2 km/h 12.9 km/h 89% 0.0 mm 153 W/m2
09:23 18.4 °C 16.6 °C 1010.5 hPa WNW 4.7 km/h 6.4 km/h 89% 0.0 mm 135 W/m2
09:28 18.6 °C 16.6 °C 1010.5 hPa West 13 km/h 12.9 km/h 88% 0.0 mm 114 W/m2
09:33 18.6 °C 16.6 °C 1010.5 hPa WNW 4.7 km/h 17.7 km/h 88% 0.0 mm 304 W/m2
09:38 18.8 °C 16.6 °C 1010.5 hPa West 3.2 km/h 3.2 km/h 87% 0.0 mm 253 W/m2
09:43 19 °C 16.6 °C 1010.8 hPa NW 6.4 km/h 17.7 km/h 86% 0.0 mm 121 W/m2
09:48 18.9 °C 16.5 °C 1010.8 hPa NW 3.2 km/h 9.7 km/h 86% 0.0 mm 146 W/m2
09:53 18.8 °C 16.8 °C 1010.8 hPa West 3.2 km/h 12.9 km/h 88% 0.0 mm 111 W/m2
09:58 18.6 °C 16.6 °C 1010.8 hPa WNW 4.7 km/h 14.5 km/h 88% 0.0 mm 107 W/m2
10:03 18.4 °C 16.4 °C 1010.8 hPa West 4.7 km/h 19.3 km/h 88% 0.0 mm 98 W/m2
10:08 18.4 °C 16.6 °C 1010.8 hPa WNW 9.7 km/h 9.7 km/h 89% 0.0 mm 186 W/m2
10:13 18.4 °C 16.6 °C 1010.8 hPa WNW 11.1 km/h 16.1 km/h 89% 0.0 mm 97 W/m2
10:18 18.3 °C 16.3 °C 1010.8 hPa WNW 11.1 km/h 11.3 km/h 88% 0.2 mm 149 W/m2
10:23 18.2 °C 16.4 °C 1011.2 hPa West 4.7 km/h 11.3 km/h 89% 0.8 mm 139 W/m2
10:28 18 °C 16.3 °C 1011.2 hPa NNW 3.2 km/h 11.3 km/h 90% 1.0 mm 97 W/m2
10:33 17.9 °C 16.2 °C 1011.2 hPa SSW 1.4 km/h 6.4 km/h 90% 1.5 mm 146 W/m2
10:38 17.8 °C 16.1 °C 1011.2 hPa NW 3.2 km/h 11.3 km/h 90% 1.8 mm 155 W/m2
10:43 17.8 °C 16.3 °C 1011.2 hPa West 3.2 km/h 9.7 km/h 91% 2.0 mm 183 W/m2
10:48 17.7 °C 16.2 °C 1011.2 hPa West 6.4 km/h 16.1 km/h 91% 2.0 mm 279 W/m2
10:53 17.8 °C 16.3 °C 1011.2 hPa SSW 6.4 km/h 6.4 km/h 91% 2.0 mm 209 W/m2
10:58 17.9 °C 16.6 °C 1011.2 hPa WNW 1.4 km/h 14.5 km/h 92% 2.0 mm 227 W/m2
11:03 18.3 °C 16.8 °C 1011.2 hPa WNW 6.4 km/h 19.3 km/h 91% 2.0 mm 640 W/m2
11:08 18.5 °C 17 °C 1011.5 hPa WSW 7.9 km/h 14.5 km/h 91% 2.0 mm 680 W/m2
11:13 18.8 °C 17.1 °C 1011.2 hPa WSW 13 km/h 19.3 km/h 90% 2.0 mm 726 W/m2
11:18 19.2 °C 17.3 °C 1011.2 hPa West 6.4 km/h 14.5 km/h 89% 1.8 mm 719 W/m2
11:23 19.5 °C 17.1 °C 1011.5 hPa West 14.3 km/h 16.1 km/h 86% 1.3 mm 782 W/m2
11:28 19.8 °C 17.8 °C 1011.5 hPa NNW 9.7 km/h 11.3 km/h 88% 1.0 mm 986 W/m2
11:33 20 °C 16.8 °C 1011.5 hPa West 6.4 km/h 16.1 km/h 82% 0.5 mm 550 W/m2
11:38 20 °C 16.4 °C 1011.9 hPa WSW 14.3 km/h 19.3 km/h 80% 0.2 mm 239 W/m2
11:43 19.8 °C 16.2 °C 1011.9 hPa West 3.2 km/h 6.4 km/h 80% 0.0 mm 371 W/m2
11:48 19.6 °C 15.9 °C 1011.9 hPa NW 6.4 km/h 19.3 km/h 79% 0.0 mm 237 W/m2
11:53 19.6 °C 16.1 °C 1011.9 hPa SW 1.4 km/h 12.9 km/h 80% 0.0 mm 369 W/m2
11:58 19.6 °C 16.1 °C 1011.9 hPa SW 7.9 km/h 11.3 km/h 80% 0.0 mm 178 W/m2
12:03 19.7 °C 16.2 °C 1011.9 hPa WSW 4.7 km/h 4.8 km/h 80% 0.0 mm 427 W/m2
12:09 19.7 °C 16 °C 1012.2 hPa WSW 3.2 km/h 4.8 km/h 79% 0.0 mm 253 W/m2
12:14 19.9 °C 16.3 °C 1012.2 hPa WSW 4.7 km/h 9.7 km/h 80% 0.0 mm 302 W/m2
12:24 20.3 °C 16.7 °C 1012.2 hPa NW 4.7 km/h 6.4 km/h 80% 0.0 mm 728 W/m2
12:29 20.6 °C 16.2 °C 1012.2 hPa SW 4.7 km/h 9.7 km/h 76% 0.0 mm 649 W/m2
12:34 20.7 °C 16.7 °C 1012.2 hPa WSW 4.7 km/h 11.3 km/h 78% 0.0 mm 575 W/m2
12:39 20.6 °C 16.4 °C 1012.2 hPa NNW 4.7 km/h 8 km/h 77% 0.0 mm 406 W/m2
12:44 20.8 °C 16.6 °C 1012.2 hPa WNW 6.4 km/h 19.3 km/h 77% 0.0 mm 853 W/m2
12:49 21.2 °C 16.8 °C 1012.2 hPa NNE 1.4 km/h 11.3 km/h 76% 0.0 mm 362 W/m2
12:54 21.3 °C 16.3 °C 1012.2 hPa SW 3.2 km/h 14.5 km/h 73% 0.0 mm 789 W/m2
12:59 21.3 °C 16.3 °C 1012.2 hPa East 3.2 km/h 4.8 km/h 73% 0.0 mm 283 W/m2
13:09 21.5 °C 15.8 °C 1012.5 hPa NW 7.9 km/h 8 km/h 70% 0.0 mm 427 W/m2
13:14 21.7 °C 15.8 °C 1012.5 hPa WNW 7.9 km/h 17.7 km/h 69% 0.0 mm 329 W/m2
13:19 21.6 °C 15.2 °C 1012.5 hPa West 13 km/h 14.5 km/h 67% 0.0 mm 209 W/m2
13:24 21.3 °C 14.9 °C 1012.5 hPa West 14.3 km/h 14.5 km/h 67% 0.0 mm 190 W/m2
13:29 21.2 °C 14.8 °C 1012.5 hPa West 6.4 km/h 9.7 km/h 67% 0.0 mm 248 W/m2
13:34 21.4 °C 15.2 °C 1012.5 hPa West 9.7 km/h 9.7 km/h 68% 0.0 mm 327 W/m2
13:39 21.6 °C 14.7 °C 1012.5 hPa SSW 6.4 km/h 16.1 km/h 65% 0.0 mm 418 W/m2
13:44 21.8 °C 14.4 °C 1012.5 hPa NW 4.7 km/h 14.5 km/h 63% 0.0 mm 519 W/m2
13:49 22.1 °C 14.7 °C 1012.5 hPa West 13 km/h 20.9 km/h 63% 0.0 mm 789 W/m2
13:54 22.3 °C 14.7 °C 1012.2 hPa West 11.1 km/h 14.5 km/h 62% 0.0 mm 1034 W/m2
13:59 22.6 °C 14.7 °C 1012.5 hPa West 4.7 km/h 11.3 km/h 61% 0.0 mm 1042 W/m2
14:04 22.8 °C 14.6 °C 1012.5 hPa West 4.7 km/h 14.5 km/h 60% 0.0 mm 1042 W/m2
14:09 22.8 °C 14.6 °C 1012.5 hPa WNW 6.4 km/h 9.7 km/h 60% 0.0 mm 415 W/m2
14:14 22.6 °C 14.4 °C 1012.9 hPa SW 9.7 km/h 20.9 km/h 60% 0.0 mm 304 W/m2
14:19 22.5 °C 13.8 °C 1012.9 hPa NW 6.4 km/h 16.1 km/h 58% 0.0 mm 371 W/m2
14:24 22.5 °C 13.8 °C 1012.9 hPa WSW 17.7 km/h 17.7 km/h 58% 0.0 mm 339 W/m2
14:29 22.7 °C 13.7 °C 1012.5 hPa WNW 4.7 km/h 14.5 km/h 57% 0.0 mm 397 W/m2
14:34 22.8 °C 13.8 °C 1012.5 hPa WNW 14.3 km/h 16.1 km/h 57% 0.0 mm 403 W/m2
14:39 22.9 °C 13.4 °C 1012.9 hPa NW 14.3 km/h 14.5 km/h 55% 0.0 mm 410 W/m2
14:44 23.1 °C 13.8 °C 1012.5 hPa West 16.3 km/h 16.1 km/h 56% 0.0 mm 499 W/m2
14:49 23.4 °C 13 °C 1012.5 hPa West 4.7 km/h 12.9 km/h 52% 0.0 mm 499 W/m2
14:54 23.6 °C 12.9 °C 1012.9 hPa WNW 13 km/h 16.1 km/h 51% 0.0 mm 533 W/m2
15:04 23.6 °C 12.9 °C 1012.9 hPa WNW 11.1 km/h 16.1 km/h 51% 0.0 mm 703 W/m2
15:09 23.7 °C 12.7 °C 1012.9 hPa WSW 1.4 km/h 19.3 km/h 50% 0.0 mm 566 W/m2
15:14 23.8 °C 13.1 °C 1012.9 hPa WSW 7.9 km/h 16.1 km/h 51% 0.0 mm 566 W/m2
15:19 23.8 °C 12.8 °C 1012.9 hPa WNW 7.9 km/h 11.3 km/h 50% 0.0 mm 566 W/m2
15:24 23.9 °C 12.5 °C 1012.9 hPa WNW 6.4 km/h 14.5 km/h 49% 0.0 mm 316 W/m2
15:29 23.7 °C 13 °C 1012.9 hPa WSW 4.7 km/h 6.4 km/h 51% 0.0 mm 352 W/m2
15:34 23.7 °C 13 °C 1012.9 hPa WNW 6.4 km/h 16.1 km/h 51% 0.0 mm 343 W/m2
15:39 23.8 °C 12.4 °C 1012.9 hPa NW 13 km/h 20.9 km/h 49% 0.0 mm 343 W/m2
15:44 24.1 °C 12.7 °C 1012.9 hPa West 19.5 km/h 19.3 km/h 49% 0.0 mm 473 W/m2
15:49 24.1 °C 12.7 °C 1012.9 hPa West 6.4 km/h 20.9 km/h 49% 0.0 mm 659 W/m2
15:54 24.3 °C 12.9 °C 1012.9 hPa NW 14.3 km/h 16.1 km/h 49% 0.0 mm 754 W/m2
15:59 24.4 °C 13 °C 1012.9 hPa West 11.1 km/h 24.1 km/h 49% 0.0 mm 754 W/m2
16:04 24.3 °C 12.9 °C 1012.9 hPa WNW 11.1 km/h 16.1 km/h 49% 0.0 mm 376 W/m2
16:09 24.2 °C 13.4 °C 1012.9 hPa West 13 km/h 17.7 km/h 51% 0.0 mm 628 W/m2
16:14 24.2 °C 13.1 °C 1012.9 hPa WNW 11.1 km/h 14.5 km/h 50% 0.0 mm 490 W/m2
16:19 24.3 °C 12.6 °C 1012.9 hPa WNW 4.7 km/h 17.7 km/h 48% 0.0 mm 782 W/m2
16:24 24.4 °C 12 °C 1012.9 hPa WNW 4.7 km/h 16.1 km/h 46% 0.0 mm 884 W/m2
16:29 24.7 °C 12.6 °C 1012.9 hPa NW 14.3 km/h 14.5 km/h 47% 0.0 mm 817 W/m2
16:34 24.8 °C 12.1 °C 1012.9 hPa WSW 6.4 km/h 22.5 km/h 45% 0.0 mm 789 W/m2
16:39 24.8 °C 12.4 °C 1012.9 hPa NW 13 km/h 19.3 km/h 46% 0.0 mm 686 W/m2
16:44 24.4 °C 12.4 °C 1012.9 hPa WNW 4.7 km/h 11.3 km/h 47% 0.0 mm 190 W/m2
16:49 24.2 °C 12.5 °C 1012.9 hPa West 6.4 km/h 20.9 km/h 48% 0.0 mm 234 W/m2
16:54 23.9 °C 12.5 °C 1012.9 hPa WNW 1.4 km/h 12.9 km/h 49% 0.0 mm 200 W/m2
16:59 24.2 °C 12.5 °C 1012.9 hPa West 6.4 km/h 20.9 km/h 48% 0.0 mm 366 W/m2
17:04 24.1 °C 12.4 °C 1013.2 hPa WSW 6.4 km/h 11.3 km/h 48% 0.0 mm 144 W/m2
17:09 23.9 °C 12.5 °C 1013.2 hPa WNW 4.7 km/h 17.7 km/h 49% 0.0 mm 795 W/m2
17:14 24.3 °C 12.9 °C 1013.2 hPa West 9.7 km/h 12.9 km/h 49% 0.0 mm 744 W/m2
17:19 24.6 °C 13.2 °C 1013.2 hPa WNW 3.2 km/h 16.1 km/h 49% 0.0 mm 693 W/m2
17:25 24.9 °C 12.5 °C 1013.2 hPa NNW 4.7 km/h 17.7 km/h 46% 0.0 mm 679 W/m2
17:30 25.1 °C 12.7 °C 1013.2 hPa WNW 6.4 km/h 9.7 km/h 46% 0.0 mm 520 W/m2
17:35 24.8 °C 12.7 °C 1013.2 hPa WNW 6.4 km/h 11.3 km/h 47% 0.0 mm 360 W/m2
17:40 24.8 °C 12.4 °C 1013.2 hPa West 4.7 km/h 11.3 km/h 46% 0.0 mm 584 W/m2
17:45 25 °C 12.6 °C 1013.2 hPa NW 14.3 km/h 29 km/h 46% 0.0 mm 592 W/m2
17:50 25 °C 11.9 °C 1013.2 hPa WNW 7.9 km/h 19.3 km/h 44% 0.0 mm 584 W/m2
17:55 25 °C 12.6 °C 1013.5 hPa WSW 11.1 km/h 16.1 km/h 46% 0.0 mm 533 W/m2
18:00 25.1 °C 12 °C 1013.2 hPa NNW 9.7 km/h 19.3 km/h 44% 0.0 mm 445 W/m2
18:05 25.2 °C 12.4 °C 1013.5 hPa SW 11.1 km/h 20.9 km/h 45% 0.0 mm 513 W/m2
18:10 24.9 °C 12.1 °C 1013.5 hPa West 11.1 km/h 16.1 km/h 45% 0.0 mm 141 W/m2
18:15 24.6 °C 12.2 °C 1013.5 hPa WSW 3.2 km/h 20.9 km/h 46% 0.0 mm 483 W/m2
18:20 24.5 °C 12.4 °C 1013.2 hPa West 3.2 km/h 12.9 km/h 47% 0.0 mm 218 W/m2
18:25 24.6 °C 12.2 °C 1013.2 hPa West 9.7 km/h 16.1 km/h 46% 0.0 mm 487 W/m2
18:30 24.7 °C 12.3 °C 1013.2 hPa WNW 1.4 km/h 11.3 km/h 46% 0.0 mm 464 W/m2
18:35 24.6 °C 12.2 °C 1013.2 hPa SSW 4.7 km/h 19.3 km/h 46% 0.0 mm 79 W/m2
18:41 24.2 °C 12.2 °C 1013.5 hPa NW 11.1 km/h 16.1 km/h 47% 0.0 mm 70 W/m2
18:46 23.8 °C 12.4 °C 1013.5 hPa NW 4.7 km/h 17.7 km/h 49% 0.0 mm 111 W/m2
18:51 23.7 °C 12.4 °C 1013.5 hPa West 1.4 km/h 3.2 km/h 49% 0.0 mm 76 W/m2
18:56 23.6 °C 12.6 °C 1013.5 hPa WSW 3.2 km/h 9.7 km/h 50% 0.0 mm 339 W/m2
19:01 23.8 °C 12.4 °C 1013.5 hPa West 6.4 km/h 12.9 km/h 49% 0.0 mm 105 W/m2
19:06 23.8 °C 12.4 °C 1013.2 hPa West 4.7 km/h 8 km/h 49% 0.0 mm 163 W/m2
19:11 23.8 °C 12.4 °C 1013.5 hPa West 1.4 km/h 8 km/h 49% 0.0 mm 58 W/m2
19:16 23.7 °C 12.4 °C 1013.2 hPa WNW 7.9 km/h 8 km/h 49% 0.0 mm 60 W/m2
19:21 23.5 °C 12.5 °C 1013.5 hPa WNW 3.2 km/h 9.7 km/h 50% 0.0 mm 62 W/m2
19:26 23.6 °C 12.6 °C 1013.5 hPa West 6.4 km/h 6.4 km/h 50% 0.0 mm 232 W/m2
19:31 23.8 °C 12.4 °C 1013.5 hPa West 3.2 km/h 9.7 km/h 49% 0.0 mm 292 W/m2
19:36 24.2 °C 12.8 °C 1013.5 hPa WSW 7.9 km/h 8 km/h 49% 0.0 mm 248 W/m2
19:41 24.4 °C 12.7 °C 1013.5 hPa NW 1.4 km/h 4.8 km/h 48% 0.0 mm 220 W/m2
19:46 24.4 °C 12.4 °C 1013.5 hPa NW 1.4 km/h 11.3 km/h 47% 0.0 mm 69 W/m2
19:51 24.4 °C 13 °C 1013.5 hPa WNW 3.2 km/h 4.8 km/h 49% 0.0 mm 192 W/m2
19:56 24.4 °C 12.4 °C 1013.5 hPa WNW 6.4 km/h 9.7 km/h 47% 0.0 mm 169 W/m2
20:01 24.3 °C 12.6 °C 1013.9 hPa West 6.4 km/h 9.7 km/h 48% 0.0 mm 137 W/m2
20:06 24.2 °C 12.5 °C 1013.9 hPa WSW 4.7 km/h 8 km/h 48% 0.0 mm 69 W/m2
20:11 24 °C 12.6 °C 1013.5 hPa WNW 4.7 km/h 12.9 km/h 49% 0.0 mm 104 W/m2
20:16 23.9 °C 12.8 °C 1013.9 hPa West 3.2 km/h 3.2 km/h 50% 0.0 mm 95 W/m2
20:21 23.8 °C 12.8 °C 1013.9 hPa West 4.7 km/h 12.9 km/h 50% 0.0 mm 83 W/m2
20:26 23.6 °C 12.9 °C 1013.9 hPa West 1.4 km/h 3.2 km/h 51% 0.0 mm 49 W/m2
20:31 23.3 °C 12.6 °C 1014.2 hPa West 1.4 km/h 4.8 km/h 51% 0.0 mm 23 W/m2
20:36 23.1 °C 12.7 °C 1014.2 hPa Calm   4.8 km/h 52% 0.0 mm 30 W/m2
20:41 22.8 °C 13 °C 1014.2 hPa Calm     54% 0.0 mm 21 W/m2
20:46 22.7 °C 13.7 °C 1014.2 hPa West 1.4 km/h 4.8 km/h 57% 0.0 mm 19 W/m2
20:51 22.4 °C 13.5 °C 1014.2 hPa West 1.4 km/h 1.6 km/h 57% 0.0 mm 21 W/m2
20:56 22.1 °C 13.2 °C 1014.2 hPa West 3.2 km/h 3.2 km/h 57% 0.0 mm 19 W/m2
21:01 21.8 °C 13.4 °C 1014.2 hPa Calm   1.6 km/h 59% 0.0 mm 16 W/m2
21:06 21.5 °C 12.9 °C 1014.2 hPa West 3.2 km/h 3.2 km/h 58% 0.0 mm 12 W/m2
21:12 21.3 °C 12.7 °C 1014.6 hPa Calm   4.8 km/h 58% 0.0 mm 9 W/m2
21:17 21.2 °C 12.9 °C 1014.6 hPa WSW 1.4 km/h 4.8 km/h 59% 0.0 mm 7 W/m2
21:22 21 °C 12.7 °C 1014.6 hPa West 1.4 km/h 3.2 km/h 59% 0.0 mm 0 W/m2
21:27 20.9 °C 12.3 °C 1014.6 hPa West 3.2 km/h 3.2 km/h 58% 0.0 mm 0 W/m2
21:32 20.8 °C 12.5 °C 1014.6 hPa Calm   6.4 km/h 59% 0.0 mm 0 W/m2
21:37 20.8 °C 13 °C 1014.6 hPa Calm     61% 0.0 mm 0 W/m2
21:42 20.6 °C 12.8 °C 1014.6 hPa Calm     61% 0.0 mm 0 W/m2
21:47 20.3 °C 12.8 °C 1014.9 hPa Calm   1.6 km/h 62% 0.0 mm 0 W/m2
21:52 20.1 °C 12.8 °C 1014.9 hPa Calm     63% 0.0 mm 0 W/m2
21:57 19.8 °C 12.8 °C 1014.9 hPa West 1.4 km/h 1.6 km/h 64% 0.0 mm 0 W/m2
22:02 19.6 °C 12.8 °C 1014.9 hPa Calm     65% 0.0 mm 0 W/m2
22:07 19.4 °C 12.9 °C 1014.9 hPa Calm     66% 0.0 mm 0 W/m2
22:12 19.2 °C 12.7 °C 1015.2 hPa Calm     66% 0.0 mm 0 W/m2
22:17 19.1 °C 12.8 °C 1015.2 hPa Calm     67% 0.0 mm 0 W/m2
22:22 18.9 °C 12.6 °C 1015.2 hPa Calm     67% 0.0 mm 0 W/m2
22:27 18.7 °C 12.7 °C 1014.9 hPa Calm     68% 0.0 mm 0 W/m2
22:32 18.5 °C 12.5 °C 1015.2 hPa Calm     68% 0.0 mm 0 W/m2
22:37 18.3 °C 12.3 °C 1015.2 hPa Calm     68% 0.0 mm 0 W/m2
22:42 18.2 °C 12.4 °C 1015.2 hPa Calm     69% 0.0 mm 0 W/m2
22:47 18 °C 12.4 °C 1015.2 hPa Calm     70% 0.0 mm 0 W/m2
22:52 17.8 °C 12.3 °C 1015.2 hPa Calm     70% 0.0 mm 0 W/m2
22:57 17.7 °C 12.4 °C 1015.2 hPa Calm     71% 0.0 mm 0 W/m2
23:03 17.6 °C 12.3 °C 1015.2 hPa Calm     71% 0.0 mm 0 W/m2
23:08 17.5 °C 12.4 °C 1015.2 hPa Calm     72% 0.0 mm 0 W/m2
23:13 17.4 °C 12.3 °C 1015.6 hPa Calm   1.6 km/h 72% 0.0 mm 0 W/m2
23:18 17.4 °C 12.5 °C 1015.6 hPa Calm     73% 0.0 mm 0 W/m2
23:23 17.3 °C 12.4 °C 1015.6 hPa Calm     73% 0.0 mm 0 W/m2
23:28 17.2 °C 12.3 °C 1015.6 hPa Calm     73% 0.0 mm 0 W/m2
23:33 17.1 °C 12.2 °C 1015.6 hPa Calm     73% 0.0 mm 0 W/m2
23:38 16.9 °C 12.2 °C 1015.6 hPa Calm     74% 0.0 mm 0 W/m2
23:43 16.8 °C 12.1 °C 1015.6 hPa Calm     74% 0.0 mm 0 W/m2
23:48 16.8 °C 12.1 °C 1015.6 hPa Calm     74% 0.0 mm 0 W/m2
23:53 16.7 °C 12 °C 1015.6 hPa Calm     74% 0.0 mm 0 W/m2
23:58 16.6 °C 12.1 °C 1015.6 hPa Calm     75% 0.0 mm 0 W/m2
Juneau County Weather
Compliments of Weather Underground - 4 mb